Погода в Петрокрепости

Хотите узнать прогноз погоды в Петрокрепости? Тогда Вам сюда: Погода в Петрокрепости

Поиск расширенной информации на нашем сайте:

Полезная информация:

Новости сайта



02.01.2020
Опубликован Долгосрочный прогноз погоды по городам России и ближнего зарубежья на январь 2020 года.
Карты: Прогноз на январь и февраль 2020 года, Сравнение прогнозируемой аномалии приземной температуры воздуха на январь 2020 года по разным моделям.




Погода в Петрокрепости - сегодня

Время (UTC), дата Ветер
(°,м/с) 
Видим.   Явления Облачность Т
(°С)
Тd
(°С)
f(%) Тe
(°С)
Pmin
(гПа)
dP
(гПа)
Po
(мм)
O2
(г/м3)
Тmin Tmax R s Состояние
почвы
03 29.11.20 090 (В) 20000 м    10/10 500 м 
[St]
-0.8 -3.7 81 1031.9  772  313  -0.9         
06 29.11.20 110 (В) 20000 м    10/10 420 м 
[St]
-1 -3.8 81 1031.8  -0.1  772  313  -1.1         
09 29.11.20 100 (В) 20000 м    10/10 400 м 
[St]
-1.2 -3.9 82 -1  1031.9  0.1  772  313           
12 29.11.20 070 (В) 20000 м    10/10 800 м 
[St]
-1 -3.8 81 1031.1  -0.8  772  313           
15 29.11.20 080 (В) 20000 м    8/8 840 м 
[Sc]
-0.3 -3.2 81 -1  1029.6  -1.5  771  311           
18 29.11.20 100 (В) 20000 м    10/10 400 м 
[St]
-1 -3.5 83 1028.7  -0.9  770  312    -0.2       
21 29.11.20 080 (В) 20000 м    10/10 360 м 
[St]
-0.8 -3 85 1027.4  -1.3  769  311           
00 30.11.20 080 (В) 20000 м  в посл. час снег  10/10 360 м 
[St]
-0.4 -2 89 1025.6  -1.7  768  310           
03 30.11.20 080 (В) 20000 м  {снег}  10/10 300 м 
[St]
+0 -1.1 92 +1  1024.1  -1.5  767  309  -1.1    0.6     
06 30.11.20 140 (ЮВ) 20000 м  {снег}  10/10 360 м 
[St]
+1 -0.2 92 +2  1023.4  -0.7  766  308  -1.1    0.6  равномерный
мокрый или
старый снег
100% 
09 30.11.20 160 (Ю) 20000 м  {снег, дождь}  9/9 800 м 
[Sc]
+1.6 +0.2 90 +1  1023.1  -0.3  766  307           
12 30.11.20 160 (Ю) 20000 м  {снег, дождь}  9/9 500 м 
[Sc]
+1.7 -0.6 85 +1  1021.8  -1.3  765  306           
15 30.11.20 140 (ЮВ) 20000 м    10/0 средняя 
[Ac und]
+0.3 -1.6 87 +1  1020.8  -1  764  308      0.3     
18 30.11.20 160 (Ю) 20000 м    10/10 600 м 
[Sc]
+0.2 -1.1 91 +1  1019.8  -1  763  308    +1.9  0.3     
21 30.11.20 170 (Ю) 20000 м  в посл. час ливневой снег  9/5 600 м кучево-дожд., средняя 
[Cb cap|Ac trans]
-0.4 -1.5 92 -1  1019.5  -0.3  763  308           
00 01.12.20 170 (Ю) 20000 м  {ливн. осадки}  10/10 900 м 
[Sc]
+0.1 -1.7 88 -1  1019.3  -0.2  763  308           
03 01.12.20 170 (Ю) 4000 м  слаб. снег [диам. отлож. мокр. снега 0 мм]  10/10 360 м 
[Frnb|Ns]
-0.2 -1.3 92 -1  1019.1  -0.2  763  308  -0.5    0.6     
06 01.12.20 190 (Ю) 4000 м  слаб. ливневой снег  10/10 180 м кучево-дожд. 
[Cb cap]
+0.3 -0.8 92 1020.3  1.2  764  308  -0.5    равномерный
мокрый или
старый снег
100% 
09 01.12.20 210 (ЮЗ) 20000 м  {ливн. осадки}  10/10 300 м 
[St]
+0.7 -1.1 88 1022.3  765  308           
12 01.12.20 210 (ЮЗ) 20000 м  {ливн. осадки}  10/10 330 м 
[St]
+1.5 -0.6 86 -1  1023.4  1.1  766  307           
15 01.12.20 210 (ЮЗ) 20000 м    10/10 330 м 
[St]
+1.5 -0.7 85 1025.4  768  308      0.8     
21 01.12.20 220 (ЮЗ) 20000 м    10/10 240 м 
[St]
+1.4 -0.2 89 1028.4  1.4  770  309           
00 02.12.20 210 (ЮЗ) 20000 м  {ливн. осадки}  10/10 400 м 
[St]
+1.5 +0.3 92 +1  1029.8  1.4  771  309           
03 02.12.20 210 (ЮЗ) 20000 м    9/4 600 м средняя 
[Sc|Ac trans]
+0.9 -0.4 91 1030.4  0.6  771  310  +0.9    0.1     
06 02.12.20 220 (ЮЗ) 20000 м    9/0 средняя 
[Ac trans]
+0.8 -0.8 89 1031.1  0.7  772  310  +0.8    0.1  мокрый или
старый снег
10-40% 
Время (UTC), дата Ветер
(°,м/с) 
Видим.   Явления Облачность Т
(°С)
Тd
(°С)
f(%) Тe
(°С)
Pmin
(гПа)
dP
(гПа)
Po
(мм)
O2
(г/м3)
Тmin Tmax R s Состояние
почвы

Для получения пояснительной информации подведите курсор к названию столбца.

ПОГОДА в Петрокрепости - архив

Всё, что Вы хотите узнать о погоде в Петрокрепости - удобно и подробно!

Выберите нужную дату (начиная с 1 января 2019* года) и нажмите кнопку "Найти".
Будут отображены архивные сводки погоды по пункту Петрокрепость, начиная с указанной даты.


Отображать данные в формате CSV (для использования в таблицах Excel)


Внимание! Наш архив погоды предназначен исключительно для личного некоммерческого использования в познавательных целях. Если Вам необходимы официальные справки о состоянии погоды (для производственных, юридических, коммерческих и т.п. целей), обращайтесь в органы Росгидромета.

*Примечание: данная дата относится к архиву по метеостанциям СССР (Россия, СНГ, Балтия).
Архив по метеостанциям Зарубежной Европы и Азии (кроме Китая) хранится 10 дней, по другим регионам земного шара (Китай, Африка, Америка, Австралия, Океания) - 1 день.

Петрокрепость - район местоположения метеостанции


Название, широта, долгота, высота метеостанции:
Петрокрепость 59.9°ш. 31°д. 17 м над ур. моря [Российская Федерация]

Дополнительная информация

В oтличие oт бoльшинства пoгoдных сайтoв мы публикуем пoдрoбную метеoинфoрмацию в детальнoм прoфессиoнальнoм фoрмате.

Характеристики температуры и влажнoсти вoздуха измеряются на высoте 2 м в тени вдали oт зданий и деревьев.
Скoрoсть ветра измеряется на высoте 10 м (на урoвне рoста челoвека скoрoсть ветра ниже в 1.5-2 раза). Если метеoстанция нахoдится в гoрoде или в лесу, тo скoрoсть ветра занижена на 2-4 м/с пo сравнению с oткрытым местoм. Скoрoсть ветра над акватoриями крупных рек и oзёр, а также на вершинах хoлмoв на 2-5 м/с выше, чем в oбычных услoвиях.
Атмoсфернoе давление в разных тoчках местнoсти мoжет значительнo oтличаться oт давления на метеoстанции, в зависимoсти oт услoвий рельефа (при пoдъёме на 10 м давление пoнижается примернo на 1 мм рт.ст.).